Wind_Speed
8 8 8 6 5 5 4 3 4 3 1 2 3 3 4 5 7 8 7 9 11 13 14 14 15 18 20 21 22 23 25 27 29 30 30 31 33 35 36 37 37 37 37
8 9 8 5 4 3 3 3 3 3 1 1 2 3 4 7 9 7 7 9 12 15 15 14 16 18 18 20 22 25 27 29 30 30 30 32 33 34 36 37 36 35 35
9 9 8 5 3 2 3 2 3 3 2 1 2 3 6 10 10 6 7 9 13 14 14 16 17 16 17 21 23 26 28 31 32 33 34 34 34 34 34 35 35 33 33
10 10 8 5 3 2 3 4 3 3 3 2 3 6 9 10 8 7 8 11 14 14 15 16 18 18 19 21 24 27 30 34 36 36 36 35 33 33 33 33 33 32 30
11 10 9 6 3 4 5 6 6 6 5 5 6 8 10 10 9 8 10 13 15 16 16 18 21 21 21 23 26 29 32 36 38 37 36 33 32 31 31 30 29 26 24
11 10 8 6 4 5 7 8 9 8 7 7 8 10 12 11 10 11 12 14 17 18 19 21 24 24 24 24 26 30 34 36 37 37 35 32 30 30 29 27 26 23 21
12 10 8 5 3 5 8 9 10 10 10 10 11 12 13 13 13 14 15 16 19 21 22 24 26 26 26 26 28 30 32 35 37 37 34 30 27 26 23 21 18 17 16
13 10 8 5 5 5 7 8 10 11 12 12 13 14 15 14 15 16 18 19 22 24 25 26 27 28 28 28 29 30 31 34 37 36 32 29 24 21 18 16 15 14 15
13 10 8 6 5 4 5 7 9 10 12 15 16 16 16 15 17 19 21 23 25 26 27 27 29 29 28 28 28 30 31 33 35 36 31 25 19 15 13 13 13 14 14
13 11 8 7 6 5 6 8 10 12 14 17 18 18 17 18 19 21 24 26 27 28 29 29 30 30 29 28 28 30 31 32 33 34 31 24 17 12 10 10 9 8 7
14 12 10 9 9 10 10 11 12 13 15 18 18 18 18 20 22 24 27 29 30 31 31 31 31 30 30 30 29 30 31 31 32 33 30 25 18 13 9 9 8 7 7
14 13 13 12 13 14 15 14 13 14 17 18 17 18 19 20 23 26 29 30 30 31 31 31 31 31 31 32 31 31 32 33 32 32 30 25 19 14 13 11 10 9 9
16 16 16 15 15 17 18 18 16 16 19 19 17 18 20 22 24 26 28 29 29 31 31 31 32 32 32 33 33 33 33 33 33 32 29 25 20 18 16 15 15 14 11
18 18 18 17 17 18 18 19 19 19 22 20 18 19 20 22 23 27 30 32 32 32 32 32 32 32 33 34 34 34 35 34 34 32 30 27 23 21 20 18 19 18 17
20 21 22 21 21 21 20 20 22 24 25 22 20 21 21 21 24 28 31 32 32 31 31 31 31 33 34 35 35 35 36 35 36 35 32 29 26 25 23 23 23 23 23
24 25 25 25 26 29 29 29 29 30 29 25 23 23 22 22 25 29 32 33 32 31 31 32 32 33 34 35 36 36 36 36 37 36 35 32 28 29 29 28 28 28 28
31 30 31 30 31 32 31 31 31 31 29 27 25 24 25 24 27 30 32 34 33 33 32 31 33 34 36 37 37 37 37 36 37 37 37 36 32 30 33 33 33 34 34
31 30 30 30 30 30 30 29 29 28 27 25 25 27 28 28 30 32 33 35 34 34 34 33 33 35 37 37 38 38 38 37 38 37 37 39 36 32 34 37 37 39 40
30 29 27 26 27 28 29 27 26 26 25 26 28 30 31 32 34 34 35 36 36 36 36 35 36 37 39 39 39 40 40 40 39 39 39 40 39 38 37 37 41 42 43
31 30 29 27 27 28 28 27 27 26 28 30 32 33 34 35 37 38 39 39 39 39 40 40 40 41 42 43 43 42 41 41 40 41 42 41 40 41 41 39 41 44 46
31 30 29 28 28 27 29 29 30 30 32 34 36 37 37 38 40 41 43 43 43 43 43 45 45 44 44 46 46 46 45 43 42 43 43 43 42 42 44 42 42 44 46
28 28 29 30 31 31 31 31 31 32 35 38 40 42 43 43 43 45 46 48 49 48 47 47 47 46 45 46 47 49 48 46 45 45 44 43 43 44 45 43 43 45 47
28 29 30 31 32 33 34 33 33 34 38 42 44 46 48 48 48 48 50 51 53 53 52 51 52 52 51 50 50 50 50 49 49 48 46 44 44 44 45 43 43 45 47
25 27 28 30 31 33 34 34 34 37 40 45 48 50 52 52 53 54 55 56 57 57 56 55 55 55 55 54 54 54 53 51 50 49 47 46 46 46 45 43 43 44 46
25 26 27 27 28 29 31 33 35 37 42 46 49 52 54 55 57 58 59 59 60 61 61 60 60 59 59 59 58 57 55 54 52 50 47 47 46 46 45 42 42 44 45
30 31 32 32 33 33 35 36 39 41 44 47 50 53 55 57 59 60 61 61 62 62 63 64 65 64 63 62 61 60 59 59 54 52 50 48 46 43 44 41 40 42 44
Wind_Direction
208 210 207 201 210 227 244 257 279 278 303 51 49 42 25 0 350 347 3 359 356 350 347 349 350 351 352 345 339 337 335 331 327 323 319 317 312 307 304 302 300 297 294
209 207 205 203 216 227 258 270 250 232 199 66 27 13 349 333 332 341 349 349 346 343 347 350 349 350 347 343 342 339 337 337 333 328 324 319 313 309 308 306 304 301 298
209 208 208 211 217 252 279 226 213 218 223 272 341 347 332 327 328 333 335 342 345 344 349 351 346 343 342 345 344 342 341 340 336 334 331 324 318 314 312 311 309 307 304
208 208 214 220 243 282 268 221 231 251 254 270 316 329 327 326 323 320 329 345 347 347 349 344 339 334 337 342 341 341 344 344 342 339 337 332 325 322 320 318 315 313 313
210 212 221 225 254 277 256 240 258 271 262 274 309 319 317 320 316 315 329 345 344 345 342 337 336 331 331 335 338 341 346 347 343 343 341 338 333 330 327 323 318 317 319
215 218 226 233 265 266 253 249 258 266 266 276 298 306 308 311 309 312 323 337 339 337 335 333 333 330 329 331 335 340 345 344 344 344 342 341 337 336 332 327 324 324 326
225 229 229 243 294 274 256 253 260 267 271 280 291 299 305 305 307 311 315 325 331 329 328 327 328 329 326 329 333 338 342 342 344 344 342 340 339 338 334 335 334 336 341
227 235 242 263 307 292 256 253 261 272 276 282 290 299 304 303 307 308 311 315 319 322 320 320 322 324 324 327 331 335 339 339 342 342 340 338 338 337 336 332 327 332 334
228 236 246 270 300 284 239 255 272 276 280 286 293 299 301 302 305 308 307 310 313 315 314 313 314 318 320 321 326 331 336 338 339 339 337 332 331 330 327 322 321 323 327
228 236 248 264 275 259 254 268 274 278 284 290 294 298 298 299 304 307 306 307 309 310 309 308 310 314 314 314 320 326 331 334 336 337 334 325 318 312 315 307 309 317 327
233 241 250 260 261 252 254 263 273 287 299 296 294 296 298 300 306 308 306 306 307 307 307 307 308 310 309 308 313 319 324 329 334 334 330 319 307 294 286 283 285 295 302
242 247 255 263 262 255 256 262 276 299 308 302 295 297 301 306 309 311 310 309 308 308 308 307 307 307 306 306 307 313 319 324 328 329 326 314 297 279 272 270 271 278 289
251 256 259 261 262 260 260 263 276 297 308 304 296 298 303 310 317 321 321 320 316 313 309 308 308 307 306 306 306 309 314 319 323 323 320 309 285 269 266 265 270 272 284
257 259 262 263 261 262 263 264 273 289 304 304 293 293 301 312 322 327 331 329 324 320 315 310 308 307 307 306 307 308 310 313 315 318 317 308 283 267 262 260 266 270 279
259 260 261 259 259 265 269 269 277 286 296 292 282 286 298 311 321 327 329 329 325 320 318 316 312 310 309 309 309 309 308 310 311 312 313 308 287 267 261 259 262 268 275
262 263 265 263 262 265 268 272 279 282 282 277 277 285 296 305 315 323 325 324 322 318 314 314 314 313 312 309 308 308 308 308 308 310 309 306 295 272 262 263 264 265 270
267 266 266 267 269 269 268 269 273 274 270 269 273 281 287 295 305 313 317 321 321 318 316 313 310 310 310 310 309 308 307 305 305 307 306 303 301 286 272 267 265 267 269
269 269 267 269 272 274 273 273 273 268 262 263 271 279 283 288 296 302 309 313 317 319 318 315 312 311 312 312 311 309 306 303 302 304 304 301 300 296 284 277 273 272 273
273 275 273 272 272 272 271 272 273 269 263 265 270 276 280 283 288 294 299 304 309 312 314 315 314 312 311 311 311 310 308 306 303 302 302 302 299 296 293 290 284 283 283
274 275 274 270 267 267 268 270 271 265 260 263 268 275 281 283 286 290 293 296 300 304 308 311 312 311 310 310 310 309 307 305 301 299 300 301 298 293 292 294 294 293 292
270 270 270 269 267 269 271 271 267 261 259 262 267 275 280 284 288 290 291 293 296 299 302 304 305 307 309 310 310 308 307 304 300 297 297 297 296 292 289 290 292 294 296
268 268 267 267 267 269 269 268 264 258 258 261 266 271 277 283 288 291 291 289 290 291 293 295 298 299 300 304 305 305 304 302 299 295 294 293 292 291 289 288 289 292 295
265 266 266 266 266 267 270 272 269 263 263 265 269 273 276 280 283 287 288 287 287 289 292 294 296 298 299 302 302 302 300 300 298 295 292 290 289 288 288 287 288 292 296
272 272 271 270 268 266 266 265 263 261 261 264 268 272 275 279 282 286 287 287 287 289 291 293 294 295 296 298 300 299 298 296 295 293 290 288 287 286 286 287 289 292 296
274 274 273 271 270 270 270 268 266 264 264 267 271 275 278 281 283 286 288 288 290 292 292 293 294 294 296 297 298 297 296 294 292 290 288 285 283 283 285 286 288 290 294
276 276 276 276 276 276 274 273 273 274 275 276 277 279 281 283 286 288 290 290 291 291 292 291 292 292 293 293 294 294 293 292 289 287 287 283 280 279 280 283 285 287 292
Height
5893 5893 5893 5892 5892 5891 5891 5891 5891 5891 5890 5889 5888 5888 5886 5885 5883 5882 5879 5878 5876 5874 5872 5869 5867 5865 5862 5860 5857 5854 5850 5847 5844 5840 5835 5830 5825 5820 5816 5812 5808 5804 5801
5892 5892 5892 5892 5891 5891 5891 5891 5891 5891 5891 5889 5888 5888 5887 5885 5883 5880 5878 5876 5875 5873 5871 5868 5866 5864 5862 5859 5855 5851 5847 5844 5839 5833 5828 5823 5818 5814 5810 5805 5801 5797 5795
5890 5891 5892 5891 5891 5891 5891 5891 5891 5891 5890 5889 5888 5887 5886 5884 5881 5879 5877 5876 5874 5872 5870 5867 5864 5862 5859 5856 5852 5848 5843 5838 5833 5828 5822 5818 5813 5808 5803 5799 5795 5791 5788
5890 5891 5891 5891 5891 5891 5891 5891 5891 5890 5890 5889 5887 5886 5884 5883 5881 5879 5877 5874 5872 5870 5867 5864 5862 5859 5856 5853 5848 5844 5839 5833 5828 5823 5818 5813 5808 5802 5797 5793 5789 5785 5783
5890 5890 5890 5891 5891 5891 5891 5890 5890 5889 5888 5887 5886 5885 5883 5882 5880 5878 5875 5872 5870 5868 5865 5862 5859 5856 5853 5849 5845 5840 5835 5830 5825 5820 5814 5808 5802 5796 5791 5787 5784 5781 5778
5889 5889 5890 5889 5889 5889 5889 5888 5888 5887 5887 5886 5884 5883 5882 5880 5878 5875 5872 5870 5868 5866 5863 5860 5857 5853 5850 5845 5841 5836 5831 5827 5821 5816 5810 5804 5798 5793 5790 5785 5782 5777 5775
5888 5889 5888 5888 5887 5887 5886 5886 5886 5886 5885 5884 5883 5881 5879 5878 5875 5872 5870 5868 5866 5864 5861 5857 5854 5850 5847 5842 5837 5833 5828 5823 5817 5812 5806 5799 5794 5791 5788 5783 5780 5776 5773
5886 5887 5887 5886 5886 5885 5885 5885 5885 5885 5883 5882 5880 5878 5877 5875 5873 5871 5868 5866 5864 5861 5858 5854 5851 5847 5843 5839 5835 5830 5825 5819 5814 5808 5801 5796 5792 5788 5786 5784 5780 5776 5772
5884 5885 5885 5885 5885 5884 5884 5884 5884 5883 5881 5880 5878 5877 5875 5873 5871 5868 5866 5864 5861 5858 5854 5851 5847 5844 5840 5836 5832 5828 5822 5816 5810 5804 5798 5794 5789 5785 5782 5781 5778 5775 5772
5883 5884 5884 5884 5884 5883 5883 5882 5881 5880 5879 5878 5876 5874 5872 5870 5868 5866 5863 5860 5857 5854 5850 5846 5843 5840 5836 5832 5828 5824 5818 5812 5806 5800 5795 5791 5786 5782 5778 5778 5774 5772 5770
5881 5882 5882 5882 5881 5881 5880 5880 5879 5878 5876 5875 5873 5871 5869 5868 5866 5864 5860 5857 5853 5850 5846 5842 5838 5835 5831 5828 5824 5819 5814 5808 5802 5797 5792 5788 5784 5780 5776 5774 5772 5771 5769
5879 5879 5879 5879 5879 5878 5878 5877 5876 5875 5874 5872 5871 5869 5867 5865 5863 5860 5856 5852 5849 5845 5841 5837 5834 5830 5826 5823 5820 5815 5810 5804 5799 5794 5789 5784 5780 5778 5776 5772 5770 5768 5766
5877 5877 5877 5877 5876 5876 5875 5875 5873 5872 5870 5869 5868 5866 5864 5862 5859 5855 5851 5848 5844 5840 5836 5833 5829 5825 5822 5818 5815 5810 5805 5800 5794 5790 5785 5779 5776 5774 5772 5770 5768 5765 5762
5874 5874 5874 5874 5873 5872 5872 5871 5870 5868 5867 5866 5865 5863 5860 5858 5855 5851 5848 5844 5841 5836 5832 5828 5825 5821 5817 5813 5810 5805 5800 5795 5789 5785 5780 5776 5772 5769 5767 5764 5763 5761 5757
5870 5870 5869 5870 5869 5868 5868 5867 5866 5865 5864 5863 5861 5859 5856 5854 5851 5848 5844 5840 5836 5832 5828 5824 5820 5816 5812 5808 5804 5800 5795 5790 5785 5779 5775 5771 5768 5765 5763 5759 5757 5755 5753
5865 5864 5863 5864 5865 5864 5863 5862 5861 5860 5859 5857 5856 5855 5852 5849 5847 5844 5840 5835 5831 5827 5823 5819 5815 5811 5807 5803 5799 5795 5790 5785 5779 5774 5769 5765 5763 5761 5758 5755 5752 5749 5746
5859 5860 5858 5859 5858 5858 5857 5856 5856 5855 5854 5853 5851 5849 5847 5844 5841 5838 5834 5831 5827 5822 5818 5814 5810 5806 5802 5797 5793 5789 5784 5779 5773 5768 5763 5759 5758 5755 5752 5749 5746 5743 5740
5853 5854 5854 5854 5853 5851 5850 5850 5850 5849 5848 5848 5846 5843 5841 5838 5835 5832 5829 5826 5823 5817 5813 5809 5804 5800 5795 5791 5786 5782 5777 5772 5766 5762 5757 5753 5751 5749 5745 5742 5739 5735 5732
5849 5848 5848 5848 5848 5846 5845 5844 5844 5843 5843 5841 5839 5836 5834 5832 5829 5827 5823 5819 5816 5812 5807 5803 5799 5794 5789 5784 5780 5775 5771 5766 5761 5756 5751 5747 5744 5740 5738 5735 5731 5728 5725
5845 5844 5843 5843 5842 5840 5838 5838 5838 5837 5836 5834 5831 5829 5827 5825 5822 5819 5816 5811 5808 5806 5801 5797 5793 5789 5784 5778 5773 5768 5763 5758 5753 5748 5744 5740 5735 5731 5729 5727 5723 5719 5715
5840 5839 5839 5838 5838 5835 5833 5832 5831 5830 5828 5827 5825 5822 5820 5817 5814 5812 5809 5805 5801 5798 5794 5790 5785 5781 5777 5771 5766 5761 5756 5751 5745 5740 5736 5732 5727 5722 5719 5717 5714 5710 5705
5834 5834 5833 5832 5831 5828 5826 5824 5823 5821 5820 5817 5816 5814 5812 5810 5808 5805 5801 5797 5792 5788 5784 5779 5774 5769 5766 5761 5757 5753 5749 5745 5738 5732 5727 5723 5718 5713 5709 5707 5704 5700 5696
5828 5827 5826 5824 5822 5821 5820 5819 5817 5816 5815 5812 5810 5807 5804 5801 5798 5795 5791 5787 5783 5779 5776 5772 5767 5764 5759 5754 5748 5743 5739 5735 5730 5723 5717 5712 5707 5703 5699 5697 5694 5690 5686
5823 5821 5820 5818 5816 5814 5812 5810 5808 5807 5806 5803 5799 5796 5793 5790 5787 5784 5781 5777 5773 5770 5766 5763 5758 5754 5749 5744 5739 5734 5729 5724 5719 5714 5708 5702 5697 5692 5688 5687 5685 5680 5676
5817 5816 5814 5811 5809 5806 5804 5802 5800 5798 5795 5793 5791 5788 5784 5781 5778 5775 5772 5768 5765 5761 5757 5753 5749 5744 5740 5735 5729 5724 5719 5713 5707 5703 5698 5693 5687 5682 5678 5676 5674 5670 5666
5812 5810 5808 5806 5804 5801 5798 5796 5793 5791 5789 5787 5784 5780 5776 5773 5770 5767 5763 5758 5754 5750 5746 5741 5737 5732 5728 5723 5717 5711 5706 5700 5694 5688 5685 5681 5677 5675 5670 5667 5664 5660 5656